Regional Weather Roundup
Issued by NWS

Home | Current Version | Previous Version | Text Only | Print | Product List | Glossary On
Versions: 1 2 3 4 5 6 7 8 9 10 11 12 13 14 15 16 17 18 19 20 21 22 23 24 25 26 27 28 29 30 31 32 33 34 35 36 37 38 39 40 41 42 43 44 45 46 47 48 49 50
000
ASUS43 KLMK 270802
RWRKY
KENTUCKY REGIONAL WEATHER ROUNDUP
NATIONAL WEATHER SERVICE LOUISVILLE KY
400 AM EDT MON APR 27 2015

NOTE "FAIR" INDICATES FEW OR NO CLOUDS BELOW 12,000 FEET
WITH NO SIGNIFICANT WEATHER AND/OR OBSTRUCTIONS TO VISIBILITY.

KYZ001>023-026-027-061>063-070>075-270900-
WESTERN AND SOUTH CENTRAL KENTUCKY

CITY           SKY/WX    TMP DP  RH WIND       PRES   REMARKS
PADUCAH        CLEAR     46  37  71 NE9       29.96F
HENDERSON      CLEAR     43  34  70 N7        29.98R
OWENSBORO      CLEAR     47  37  68 N7        29.97R
HOPKINSVILLE   CLEAR     44  39  83 N7        29.92F
BOWLING GREEN  CLEAR     47  36  65 N3        29.93R
GLASGOW        NOT AVBL
$$

KYZ024-025-028>034-038-045-046-053-270900-
NORTH CENTRAL KENTUCKY

CITY           SKY/WX    TMP DP  RH WIND       PRES   REMARKS
LOUISVILLE/SDF CLEAR     48  35  60 N10       29.93S
LOUISVILLE/LOU CLEAR     46  36  68 N5        29.94S
FORT KNOX      CLEAR     43  36  74 N9        29.92R
$$

KYZ035>037-039>044-047>052-055>060-089>105-270900-
NORTHEAST KENTUCKY

CITY           SKY/WX    TMP DP  RH WIND       PRES   REMARKS
LEXINGTON      CLEAR     41  34  76 N3        29.91S
COVINGTON      PTCLDY    41  34  76 CALM      29.91S
FRANKFORT      CLEAR     38  34  85 CALM      29.90S
$$

KYZ054-064>069-076>088-106>120-270900-
SOUTHEAST KENTUCKY

CITY           SKY/WX    TMP DP  RH WIND       PRES   REMARKS
JACKSON        PTCLDY    45  31  58 CALM      29.87F
LONDON         CLEAR     42  34  73 N5        29.88S
SOMERSET       NOT AVBL
MIDDLESBORO    FOG       39  39 100 CALM      29.88R VSB 1/2
MONTICELLO     FOG       37  37 100 CALM      29.93R VSB 3/4
$$




USA.gov is the U.S. government's official web portal to all federal, state and local government web resources and services.